Location: Sungai Bunut
(2.6333°N, 113.7333°E)
Time: 16:33:13
(UTC+00:00)

Altair - Pass Details

Date: 03 December 2023
Orbit: 1501 x 1682 km, 47.2° (Epoch: 24 February)

Event Time Altitude Azimuth Distance (km) Brightness Sun altitude
Rises 08:27:59 0° 338° (NNW) 4,621 10.0 23.5°
Reaches altitude 10° 08:31:29 10° 348° (NNW) 3,641 9.4 22.7°
Maximum altitude 08:39:19 32° 48° (NE) 2,378 8.2 20.9°
Drops below altitude 10° 08:47:16 10° 107° (ESE) 3,709 9.2 19.1°
Sets 08:50:48 0° 117° (ESE) 4,718 9.7 18.3°
